Time,TemperatureF,DewpointF,PressureIn,WindDirection,WindDirectionDegrees,WindSpeedMPH,WindSpeedGustMPH,Humidity,HourlyPrecipIn,Conditions,Clouds,dailyrainin,SoftwareType,DateUTC
2013-10-25 00:14:00,47.3,34.0,30.02,WNW,290,18.0,-999.0,60,-99.99,,,0.00,weatherlink.com 1.10,2013-10-25 04:14:00,
2013-10-25 00:29:00,47.0,33.0,30.02,WNW,291,12.0,-999.0,59,-99.99,,,0.00,weatherlink.com 1.10,2013-10-25 04:29:00,
2013-10-25 00:44:00,46.6,34.0,30.02,WNW,295,9.0,-999.0,61,-99.99,,,0.00,weatherlink.com 1.10,2013-10-25 04:44:00,
2013-10-25 00:59:00,46.4,34.0,30.03,WNW,303,14.0,-999.0,63,-99.99,,,0.00,weatherlink.com 1.10,2013-10-25 04:59:00,
2013-10-25 01:14:00,46.0,35.0,30.03,WNW,299,9.0,-999.0,65,-99.99,,,0.00,weatherlink.com 1.10,2013-10-25 05:14:00,
2013-10-25 01:29:00,46.1,34.0,30.04,WNW,291,11.0,-999.0,64,-99.99,,,0.00,weatherlink.com 1.10,2013-10-25 05:29:00,
2013-10-25 01:45:00,46.1,35.0,30.04,WNW,297,11.0,-999.0,65,-99.99,,,0.00,weatherlink.com 1.10,2013-10-25 05:45:00,
2013-10-25 02:00:00,45.9,35.0,30.04,West,279,8.0,-999.0,66,-99.99,,,0.00,weatherlink.com 1.10,2013-10-25 06:00:00,
2013-10-25 02:15:00,45.8,35.0,30.04,WNW,297,11.0,-999.0,66,-99.99,,,0.00,weatherlink.com 1.10,2013-10-25 06:15:00,
2013-10-25 02:30:00,45.4,35.0,30.04,WNW,297,13.0,-999.0,68,-99.99,,,0.00,weatherlink.com 1.10,2013-10-25 06:30:00,
2013-10-25 02:45:00,45.5,35.0,30.04,NW,320,14.0,-999.0,67,-99.99,,,0.00,weatherlink.com 1.10,2013-10-25 06:45:00,
2013-10-25 03:00:00,45.4,35.0,30.04,WNW,296,6.0,-999.0,68,-99.99,,,0.00,weatherlink.com 1.10,2013-10-25 07:00:00,
2013-10-25 03:15:00,45.2,35.0,30.04,WNW,302,14.0,-999.0,67,-99.99,,,0.00,weatherlink.com 1.10,2013-10-25 07:15:00,
2013-10-25 03:30:00,45.0,35.0,30.04,WNW,288,12.0,-999.0,68,-99.99,,,0.00,weatherlink.com 1.10,2013-10-25 07:30:00,
2013-10-25 03:45:00,45.1,35.0,30.04,WNW,297,8.0,-999.0,67,-99.99,,,0.00,weatherlink.com 1.10,2013-10-25 07:45:00,
2013-10-25 04:00:00,45.2,36.0,30.04,WNW,295,10.0,-999.0,69,-99.99,,,0.00,weatherlink.com 1.10,2013-10-25 08:00:00,
2013-10-25 04:15:00,45.2,36.0,30.04,WNW,290,9.0,-999.0,69,-99.99,,,0.00,weatherlink.com 1.10,2013-10-25 08:15:00,
2013-10-25 04:30:00,45.1,35.0,30.05,WNW,285,7.0,-999.0,68,-99.99,,,0.00,weatherlink.com 1.10,2013-10-25 08:30:00,
2013-10-25 04:46:00,44.9,35.0,30.05,NW,306,13.0,-999.0,69,-99.99,,,0.00,weatherlink.com 1.10,2013-10-25 08:46:00,
2013-10-25 05:01:00,44.6,35.0,30.05,NW,304,13.0,-999.0,69,-99.99,,,0.00,weatherlink.com 1.10,2013-10-25 09:01:00,
2013-10-25 05:16:00,44.6,35.0,30.06,WNW,296,9.0,-999.0,70,-99.99,,,0.00,weatherlink.com 1.10,2013-10-25 09:16:00,
2013-10-25 05:31:00,44.4,36.0,30.06,NW,311,10.0,-999.0,71,-99.99,,,0.00,weatherlink.com 1.10,2013-10-25 09:31:00,
2013-10-25 05:46:00,44.2,36.0,30.07,WNW,294,10.0,-999.0,72,-99.99,,,0.00,weatherlink.com 1.10,2013-10-25 09:46:00,
2013-10-25 06:01:00,44.1,36.0,30.07,NW,304,15.0,-999.0,72,-99.99,,,0.00,weatherlink.com 1.10,2013-10-25 10:01:00,
2013-10-25 06:16:00,44.0,35.0,30.07,NW,311,13.0,-999.0,72,-99.99,,,0.00,weatherlink.com 1.10,2013-10-25 10:16:00,
2013-10-25 06:31:00,44.0,35.0,30.07,WNW,300,17.0,-999.0,71,-99.99,,,0.00,weatherlink.com 1.10,2013-10-25 10:31:00,
2013-10-25 06:46:00,43.8,35.0,30.09,NW,314,13.0,-999.0,70,-99.99,,,0.00,weatherlink.com 1.10,2013-10-25 10:46:00,
2013-10-25 07:01:00,43.7,35.0,30.09,NW,312,16.0,-999.0,71,-99.99,,,0.00,weatherlink.com 1.10,2013-10-25 11:01:00,
2013-10-25 07:16:00,43.4,35.0,30.10,NW,307,15.0,-999.0,71,-99.99,,,0.00,weatherlink.com 1.10,2013-10-25 11:16:00,
2013-10-25 07:32:00,43.4,35.0,30.10,WNW,301,11.0,-999.0,72,-99.99,,,0.00,weatherlink.com 1.10,2013-10-25 11:32:00,
2013-10-25 07:47:00,43.6,35.0,30.11,WNW,300,18.0,-999.0,72,-99.99,,,0.00,weatherlink.com 1.10,2013-10-25 11:47:00,
2013-10-25 08:02:00,43.8,35.0,30.11,NW,317,14.0,-999.0,71,-99.99,,,0.00,weatherlink.com 1.10,2013-10-25 12:02:00,
2013-10-25 08:17:00,44.0,35.0,30.12,NW,316,16.0,-999.0,71,-99.99,,,0.00,weatherlink.com 1.10,2013-10-25 12:17:00,
2013-10-25 08:32:00,44.4,35.0,30.13,NW,304,15.0,-999.0,70,-99.99,,,0.00,weatherlink.com 1.10,2013-10-25 12:32:00,
2013-10-25 08:47:00,44.5,35.0,30.13,NW,311,15.0,-999.0,69,-99.99,,,0.00,weatherlink.com 1.10,2013-10-25 12:47:00,
2013-10-25 09:02:00,44.8,36.0,30.13,NW,304,17.0,-999.0,70,-99.99,,,0.00,weatherlink.com 1.10,2013-10-25 13:02:00,
2013-10-25 09:17:00,45.2,36.0,30.14,WNW,296,13.0,-999.0,69,-99.99,,,0.00,weatherlink.com 1.10,2013-10-25 13:17:00,
2013-10-25 09:32:00,45.5,36.0,30.14,NW,312,16.0,-999.0,69,-99.99,,,0.00,weatherlink.com 1.10,2013-10-25 13:32:00,
2013-10-25 09:47:00,45.8,37.0,30.14,NW,316,17.0,-999.0,70,-99.99,,,0.00,weatherlink.com 1.10,2013-10-25 13:47:00,
2013-10-25 10:02:00,46.4,36.0,30.14,NW,315,18.0,-999.0,67,-99.99,,,0.00,weatherlink.com 1.10,2013-10-25 14:02:00,
2013-10-25 10:17:00,46.7,36.0,30.14,NNW,328,15.0,-999.0,67,-99.99,,,0.00,weatherlink.com 1.10,2013-10-25 14:17:00,
2013-10-25 10:33:00,47.3,36.0,30.14,NW,317,15.0,-999.0,65,-99.99,,,0.00,weatherlink.com 1.10,2013-10-25 14:33:00,
2013-10-25 10:48:00,47.3,36.0,30.14,WNW,284,11.0,-999.0,66,-99.99,,,0.00,weatherlink.com 1.10,2013-10-25 14:48:00,
2013-10-25 11:03:00,47.9,36.0,30.14,WNW,287,15.0,-999.0,64,-99.99,,,0.00,weatherlink.com 1.10,2013-10-25 15:03:00,
2013-10-25 11:18:00,48.5,37.0,30.14,NW,311,10.0,-999.0,65,-99.99,,,0.00,weatherlink.com 1.10,2013-10-25 15:18:00,
2013-10-25 11:33:00,48.3,37.0,30.14,NW,314,10.0,-999.0,64,-99.99,,,0.00,weatherlink.com 1.10,2013-10-25 15:33:00,
2013-10-25 11:48:00,49.0,36.0,30.14,WNW,295,13.0,-999.0,62,-99.99,,,0.00,weatherlink.com 1.10,2013-10-25 15:48:00,
2013-10-25 12:03:00,49.2,36.0,30.14,WNW,297,12.0,-999.0,60,-99.99,,,0.00,weatherlink.com 1.10,2013-10-25 16:03:00,
2013-10-25 12:18:00,49.7,36.0,30.14,WNW,295,16.0,-999.0,59,-99.99,,,0.00,weatherlink.com 1.10,2013-10-25 16:18:00,
2013-10-25 12:33:00,50.1,37.0,30.13,West,276,14.0,-999.0,61,-99.99,,,0.00,weatherlink.com 1.10,2013-10-25 16:33:00,
2013-10-25 12:48:00,50.4,37.0,30.13,West,264,16.0,-999.0,61,-99.99,,,0.00,weatherlink.com 1.10,2013-10-25 16:48:00,
2013-10-25 13:03:00,50.0,36.0,30.12,WNW,288,20.0,-999.0,60,-99.99,,,0.00,weatherlink.com 1.10,2013-10-25 17:03:00,
2013-10-25 13:19:00,50.8,38.0,30.12,NW,307,15.0,-999.0,62,-99.99,,,0.00,weatherlink.com 1.10,2013-10-25 17:19:00,
2013-10-25 13:34:00,50.6,37.0,30.12,WNW,286,15.0,-999.0,61,-99.99,,,0.00,weatherlink.com 1.10,2013-10-25 17:34:00,
2013-10-25 13:49:00,51.1,37.0,30.12,West,267,11.0,-999.0,60,-99.99,,,0.00,weatherlink.com 1.10,2013-10-25 17:49:00,
2013-10-25 14:04:00,51.4,37.0,30.11,West,277,17.0,-999.0,59,-99.99,,,0.00,weatherlink.com 1.10,2013-10-25 18:04:00,
2013-10-25 14:19:00,51.5,38.0,30.11,West,279,23.0,-999.0,60,-99.99,,,0.00,weatherlink.com 1.10,2013-10-25 18:19:00,
2013-10-25 14:34:00,52.1,37.0,30.11,WNW,291,17.0,-999.0,57,-99.99,,,0.00,weatherlink.com 1.10,2013-10-25 18:34:00,
2013-10-25 14:49:00,51.8,38.0,30.12,West,271,7.0,-999.0,59,-99.99,,,0.00,weatherlink.com 1.10,2013-10-25 18:49:00,
2013-10-25 15:04:00,52.1,38.0,30.12,WNW,288,12.0,-999.0,60,-99.99,,,0.00,weatherlink.com 1.10,2013-10-25 19:04:00,
2013-10-25 15:19:00,52.5,38.0,30.12,WNW,301,14.0,-999.0,58,-99.99,,,0.00,weatherlink.com 1.10,2013-10-25 19:19:00,
2013-10-25 15:34:00,52.9,38.0,30.12,WNW,283,12.0,-999.0,57,-99.99,,,0.00,weatherlink.com 1.10,2013-10-25 19:34:00,
2013-10-25 15:49:00,53.1,39.0,30.12,West,264,12.0,-999.0,59,-99.99,,,0.00,weatherlink.com 1.10,2013-10-25 19:49:00,
2013-10-25 16:04:00,52.8,37.0,30.12,NW,308,18.0,-999.0,55,-99.99,,,0.00,weatherlink.com 1.10,2013-10-25 20:04:00,
2013-10-25 16:19:00,53.2,37.0,30.13,NW,305,12.0,-999.0,54,-99.99,,,0.00,weatherlink.com 1.10,2013-10-25 20:19:00,
2013-10-25 16:35:00,52.8,37.0,30.13,WNW,295,14.0,-999.0,56,-99.99,,,0.00,weatherlink.com 1.10,2013-10-25 20:35:00,
2013-10-25 16:50:00,53.2,36.0,30.13,NNW,333,9.0,-999.0,53,-99.99,,,0.00,weatherlink.com 1.10,2013-10-25 20:50:00,
2013-10-25 17:05:00,52.5,37.0,30.13,NW,312,12.0,-999.0,56,-99.99,,,0.00,weatherlink.com 1.10,2013-10-25 21:05:00,
2013-10-25 17:20:00,51.9,36.0,30.14,WNW,292,11.0,-999.0,56,-99.99,,,0.00,weatherlink.com 1.10,2013-10-25 21:20:00,
2013-10-25 17:35:00,52.0,37.0,30.14,NW,318,11.0,-999.0,56,-99.99,,,0.00,weatherlink.com 1.10,2013-10-25 21:35:00,
2013-10-25 17:50:00,51.5,37.0,30.14,WNW,303,12.0,-999.0,57,-99.99,,,0.00,weatherlink.com 1.10,2013-10-25 21:50:00,
2013-10-25 18:05:00,51.2,36.0,30.15,NW,311,11.0,-999.0,57,-99.99,,,0.00,weatherlink.com 1.10,2013-10-25 22:05:00,
2013-10-25 18:20:00,50.6,37.0,30.15,WNW,293,5.0,-999.0,61,-99.99,,,0.00,weatherlink.com 1.10,2013-10-25 22:20:00,
2013-10-25 18:35:00,49.8,38.0,30.16,WNW,298,7.0,-999.0,63,-99.99,,,0.00,weatherlink.com 1.10,2013-10-25 22:35:00,
2013-10-25 18:50:00,49.6,37.0,30.17,NW,304,8.0,-999.0,62,-99.99,,,0.00,weatherlink.com 1.10,2013-10-25 22:50:00,
2013-10-25 19:05:00,49.7,37.0,30.18,WNW,300,11.0,-999.0,61,-99.99,,,0.00,weatherlink.com 1.10,2013-10-25 23:05:00,
2013-10-25 19:20:00,49.7,37.0,30.18,WNW,293,12.0,-999.0,62,-99.99,,,0.00,weatherlink.com 1.10,2013-10-25 23:20:00,
2013-10-25 19:35:00,49.4,37.0,30.18,NW,311,9.0,-999.0,63,-99.99,,,0.00,weatherlink.com 1.10,2013-10-25 23:35:00,
2013-10-25 19:51:00,49.0,37.0,30.18,NNW,328,7.0,-999.0,64,-99.99,,,0.00,weatherlink.com 1.10,2013-10-25 23:51:00,
2013-10-25 20:06:00,48.8,37.0,30.19,WNW,302,7.0,-999.0,63,-99.99,,,0.00,weatherlink.com 1.10,2013-10-26 00:06:00,
2013-10-25 20:21:00,48.8,36.0,30.19,NW,307,7.0,-999.0,62,-99.99,,,0.00,weatherlink.com 1.10,2013-10-26 00:21:00,
2013-10-25 20:36:00,48.5,37.0,30.19,NW,306,6.0,-999.0,65,-99.99,,,0.00,weatherlink.com 1.10,2013-10-26 00:36:00,
2013-10-25 20:51:00,48.2,37.0,30.20,WNW,293,7.0,-999.0,66,-99.99,,,0.00,weatherlink.com 1.10,2013-10-26 00:51:00,
2013-10-25 21:06:00,47.4,37.0,30.20,NW,305,8.0,-999.0,68,-99.99,,,0.00,weatherlink.com 1.10,2013-10-26 01:06:00,
2013-10-25 21:21:00,47.7,37.0,30.21,WNW,291,6.0,-999.0,67,-99.99,,,0.00,weatherlink.com 1.10,2013-10-26 01:21:00,
2013-10-25 21:36:00,46.8,37.0,30.21,WNW,292,5.0,-999.0,70,-99.99,,,0.00,weatherlink.com 1.10,2013-10-26 01:36:00,
2013-10-25 21:51:00,46.3,37.0,30.21,WNW,283,5.0,-999.0,71,-99.99,,,0.00,weatherlink.com 1.10,2013-10-26 01:51:00,
2013-10-25 22:06:00,46.3,38.0,30.21,NW,306,5.0,-999.0,73,-99.99,,,0.00,weatherlink.com 1.10,2013-10-26 02:06:00,
2013-10-25 22:21:00,46.1,38.0,30.22,WNW,303,4.0,-999.0,73,-99.99,,,0.00,weatherlink.com 1.10,2013-10-26 02:21:00,
2013-10-25 22:36:00,46.1,39.0,30.22,WNW,290,5.0,-999.0,75,-99.99,,,0.00,weatherlink.com 1.10,2013-10-26 02:36:00,
2013-10-25 22:52:00,46.3,39.0,30.22,NW,307,7.0,-999.0,75,-99.99,,,0.00,weatherlink.com 1.10,2013-10-26 02:52:00,
2013-10-25 23:07:00,47.1,38.0,30.22,NW,307,9.0,-999.0,70,-99.99,,,0.00,weatherlink.com 1.10,2013-10-26 03:07:00,
2013-10-25 23:22:00,46.8,37.0,30.23,WNW,298,10.0,-999.0,70,-99.99,,,0.00,weatherlink.com 1.10,2013-10-26 03:22:00,
2013-10-25 23:37:00,46.2,38.0,30.23,WNW,295,6.0,-999.0,72,-99.99,,,0.00,weatherlink.com 1.10,2013-10-26 03:37:00,
2013-10-25 23:52:00,46.1,38.0,30.23,WNW,296,6.0,-999.0,72,-99.99,,,0.00,weatherlink.com 1.10,2013-10-26 03:52:00,